Regional Weather Roundup
Issued by NWS

Home | Current Version | Previous Version | Graphics & Text | Print | Product List | Glossary On
Versions: 1 2 3 4 5 6 7 8 9 10 11 12 13 14 15 16 17 18 19 20 21 22 23 24 25 26 27 28 29 30 31 32 33 34 35 36 37 38 39 40 41 42 43 44 45 46 47 48 49 50
804
ASUS43 KIND 211859
RWRIN

WEATHER ROUNDUP FOR INDIANA
NATIONAL WEATHER SERVICE INDIANAPOLIS IN
200 PM EST SAT JAN 21 2017

NOTE: "FAIR" INDICATES FEW OR NO CLOUDS BELOW 12,000 FEET WITH NO
SIGNIFICANT WEATHER AND/OR OBSTRUCTIONS TO VISIBILITY.

* - STATION DOES NOT REPORT WEATHER SUCH AS PRECIPITATION OR FOG.

+ - STATION NOT QUALITY CONTROLLED BY THE NATIONAL WEATHER SERVICE.
    USE DATA WITH CAUTION...ESPECIALLY DEWPOINT AND RELATIVE
    HUMIDITY OBSERVATIONS.

INZ001>003-010>013-019-020-212000-
NORTHWEST INDIANA

CITY           SKY/WX    TMP DP  RH WIND       PRES   REMARKS
GARY /AIRPORT/ MOSUNNY   61  46  59 S9G21     29.49F
MONTICELLO +   SUNNY     61  51  71 S9G17     29.54F

$$

LMZ046-743>745-212000-
SOUTHERN LAKE MICHIGAN

STATION/POSITION TIME  TEMP    WIND        PRES    WAVE
                       AIR SEA DIR/SP/G            HT
                 (UTC) (F)     (DEG/KT/KT) (MB)    (FT)
BURNS HARBOR     1840   57     190/ 14/ 22  999.7F
MICHIGAN CITY    1830   58     160/ 16/ 20   N/A

$$

INZ004-005-014>016-021>024-212000-
NORTH CENTRAL INDIANA

CITY           SKY/WX    TMP DP  RH WIND       PRES   REMARKS
ELKHART        MOSUNNY   59  50  72 S12G17    29.54F
GOSHEN         MOSUNNY   59  49  69 S15       29.54F
SOUTH BEND     SUNNY     60  49  66 S15       29.53F

$$

INZ006>009-017-018-025>027-212000-
NORTHEAST INDIANA

CITY           SKY/WX    TMP DP  RH WIND       PRES   REMARKS
ANGOLA *+      SUNNY     57  54  88 S10       29.57F
FORT WAYNE     PTSUNNY   60  52  74 S14       29.59F
KENDALLVILLE + CLOUDY    58  52  80 S10       29.57F

$$

INZ028-029-035-036-043>045-051>053-212000-
WEST CENTRAL INDIANA

CITY           SKY/WX    TMP DP  RH WIND       PRES   REMARKS
CRAWFORDSVL +  SUNNY     60  55  84 S16       29.56F
LAFAYETTE      MOSUNNY   62  52  69 S10G22    29.54F
TERRE HAUTE    SUNNY     63  53  70 SW14      29.56F

$$

INZ030>032-037>040-046>048-054>057-064-065-212000-
CENTRAL INDIANA

CITY           SKY/WX    TMP DP  RH WIND       PRES   REMARKS
ANDERSON       SUNNY     59  54  82 S12       29.59
COLUMBUS       SUNNY     59  55  88 S8        29.61F
INDIANAPOLIS   PTSUNNY   63  52  67 S15       29.56F
-EAGLE CREEK   PTSUNNY   64  51  62 S12       29.56F
KOKOMO +       PTSUNNY   60  53  77 S15       29.56F
MT COMFORT *+  PTSUNNY   59  54  82 S9        29.59F
SHELBYVILLE    CLOUDY    60  52  74 S12       29.59F

$$

INZ033-034-041-042-049-050-058-059-212000-
EAST CENTRAL INDIANA

CITY           SKY/WX    TMP DP  RH WIND       PRES   REMARKS
MUNCIE         PTSUNNY   61  51  70 S10G18    29.59F

$$

INZ060-061-067>069-081>083-085>088-212000-
SOUTHWEST INDIANA

CITY           SKY/WX    TMP DP  RH WIND       PRES   REMARKS
EVANSVILLE     SUNNY     68  53  58 SW18G24   29.59F
HUNTINGBURG *+ MOSUNNY   66  55  67 S13       29.60F

$$

INZ062-063-066-070>080-084-089>092-212000-
SOUTH CENTRAL AND SOUTHEAST INDIANA

CITY           SKY/WX    TMP DP  RH WIND       PRES   REMARKS
BLOOMINGTON    MOSUNNY   65  53  65 SW13      29.58F
MADISON *+     PTSUNNY   61  52  72 S3        29.65S
SEYMOUR +      CLOUDY    63  55  77 S5        29.62F

$$





USA.gov is the U.S. government's official web portal to all federal, state and local government web resources and services.